This is the latest recevied weather packets stored in our database for station/object N9BID. If no packets are shown the sender has not sent any weather packets the latest 10 day(s).
| Time | Temp. | Humidity | Pressure | Rain* | Wind** | Luminosity | Snow |
|---|---|---|---|---|---|---|---|
| 1777851898 | 19.44° C | 38% | 995.3 hPa | 0 mm | - | 104 W/m² | - |
| 1777851596 | 19.44° C | 38% | 995.6 hPa | 0 mm | - | 113 W/m² | - |
| 1777851292 | 19.44° C | 38% | 995.4 hPa | 0 mm | - | 122 W/m² | - |
| 1777850988 | 19.44° C | 38% | 995.6 hPa | 0 mm | - | 135 W/m² | - |
| 1777850685 | 19.44° C | 37% | 995.3 hPa | 0 mm | - | 146 W/m² | - |
| 1777850383 | 20° C | 38% | 995.2 hPa | 0 mm | - | 144 W/m² | - |
| 1777850081 | 20° C | 37% | 995.4 hPa | 0 mm | - | 174 W/m² | - |
| 1777849777 | 20° C | 38% | 995.4 hPa | 0 mm | - | 187 W/m² | - |
| 1777849474 | 20° C | 41% | 995.5 hPa | 0 mm | - | 193 W/m² | - |
| 1777849171 | 19.44° C | 38% | 995.4 hPa | 0 mm | - | 169 W/m² | - |
| 1777848868 | 20° C | 40% | 995.2 hPa | 0 mm | - | 145 W/m² | - |
| 1777848564 | 20° C | 39% | 995.4 hPa | 0 mm | - | 241 W/m² | - |
| 1777848261 | 20° C | 38% | 995.5 hPa | 0 mm | - | 253 W/m² | - |
| 1777847959 | 20° C | 39% | 995.5 hPa | 0 mm | - | 284 W/m² | - |
| 1777847656 | 20.56° C | 40% | 995.5 hPa | 0 mm | - | 340 W/m² | - |
| 1777847357 | 20.56° C | 40% | 995.4 hPa | 0 mm | - | 324 W/m² | - |
| 1777847055 | 20° C | 42% | 995.5 hPa | 0 mm | - | 309 W/m² | - |
| 1777846753 | 20.56° C | 42% | 995.4 hPa | 0 mm | - | 291 W/m² | - |
| 1777846451 | 20.56° C | 43% | 995.3 hPa | 0 mm | - | 314 W/m² | - |
| 1777846147 | 20° C | 45% | 995.1 hPa | 0 mm | - | 260 W/m² | - |
| 1777845844 | 20.56° C | 41% | 995.1 hPa | 0 mm | - | 381 W/m² | - |
| 1777845541 | 20.56° C | 43% | 995.3 hPa | 0 mm | - | 391 W/m² | - |
| 1777845238 | 20.56° C | 40% | 995.1 hPa | 0 mm | - | 395 W/m² | - |
| 1777844935 | 20.56° C | 41% | 995.3 hPa | 0 mm | - | 446 W/m² | - |
| 1777844633 | 20.56° C | 41% | 995.5 hPa | 0 mm | - | 418 W/m² | - |
* Rain latest hour (hover to see other rain measurements)
** Current wind speed in m/s (hover to see current wind gust speed)